Regional Weather Roundup
Issued by NWS Grand Forks, ND

Current Version | Previous Version | Text Only | Print | Product List | Glossary On
Versions: 1 2 3 4 5 6 7 8 9 10 11 12 13 14 15 16 17 18 19 20 21 22 23 24 25 26 27 28 29 30 31 32 33 34 35 36 37 38 39 40 41 42 43 44 45 46 47 48 49 50
000 ASUS43 KFGF 021731 RWRFGF PRAIRIE TO PINES WEATHER ROUNDUP NATIONAL WEATHER SERVICE EASTERN NORTH DAKOTA/GRAND FORKS ND 1100 AM CST TUE MAR 02 2021 **SATELLITE DATA USED TO AUGMENT SKY COVER AT AUTOMATED STATIONS** ***** WEATHER ACROSS EASTERN NORTH DAKOTA ***** CITY SKY/WX TMP DP RH WIND PRES REMARKS GRAND FORKS PTSUNNY 46 27 47 W12 29.62R GRAND FRKS AFB MOSUNNY 44 32 63 W13 29.61S GRAND FRKS NWS N/A 46 32 58 NW3 29.59R DEVILS LAKE FAIR 40 30 67 W18 29.65 FARGO FAIR 37 28 70 SW13 29.68S WAHPETON ARPT FAIR 41 32 70 W9 29.72R $$ ***** WEATHER ACROSS CENTRAL AND WESTERN NORTH DAKOTA ***** CITY SKY/WX TMP DP RH WIND PRES REMARKS BISMARCK FAIR 55 27 34 W16G24 29.76S MINOT FAIR 43 29 57 W17G25 29.71R JAMESTOWN FAIR 46 31 55 W16 29.69S MINOT AFB MOSUNNY 39 30 70 NW17 29.70R GARRISON N/A 49 28 44 NW24G36 29.73R WILLISTON NOT AVBL DICKINSON FAIR 52 24 33 NW23G31 29.79R HETTINGER FAIR 51 24 34 W20 29.85R $$ ***** OTHER AIRPORT OBSERVATIONS IN OUR AREA ***** CITY SKY/WX TMP DP RH WIND PRES REMARKS WALHALLA FAIR 46 41 81 W13G21 29.58R GRAFTON AIRPOR FAIR 46 30 53 NW10 29.63R VALLEY CITY AR FAIR 41 34 75 W17 29.70R CANDO FAIR 41 32 70 W20G29 29.66R CAVALIER APRT FAIR 45 32 61 W16 29.59R GWINNER SUNNY 46 32 57 W16 29.72R SHEYENNE NWR N/A 44 30 58 W9 29.95S ROLLA FAIR 43 28 56 W14G21 29.65R ***** THE ABOVE OBSERVATIONS ARE NON NWS ARE NOT QUALITY CONTROLLED AND MAY MIS-REPORT RAIN FOR SNOW... $$ ***** WEATHER ACROSS NORTHERN MINNESOTA ***** CITY SKY/WX TMP DP RH WIND PRES REMARKS FLAG ISLAND FAIR 39 27 60 W12 29.51R WARROAD FAIR 39 30 70 W15G25 29.55R ROSEAU FAIR 36 21 55 SW15G22 29.56R HALLOCK FAIR 46 34 61 W13 29.59R THF RVR FALLS FAIR 34 25 69 SW16 29.62S WCI 24 BAUDETTE CLOUDY 35 26 69 W8 29.54R WASKISH FAIR 37 27 65 SW14G20 29.59R CROOKSTON FAIR 37 27 65 SW12 29.64F STEPHEN NDAWN N/A 45 30 57 MISG N/A GREENBUSH NDAW N/A 39 28 65 MISG N/A $$ ***** WEATHER ACROSS CENTRAL AND WEST MINNESOTA ***** CITY SKY/WX TMP DP RH WIND PRES REMARKS FOSSTON FAIR 34 25 69 SW14 29.66R WCI 24 BEMIDJI FAIR 40 26 56 SW13 29.61F PARK RAPIDS FAIR 35 25 66 SW12 29.66F ELBOW LAKE FAIR 38 31 75 W10 29.73F WADENA FAIR 39 27 60 SW17G23 29.69R DETROIT LAKES FAIR 37 25 60 W10G18 29.68S MOORHEAD FAIR 41 27 56 SW12 29.71S FERGUS FALLS FAIR 37 30 75 S6 29.69R MORRIS MN FAIR 43 27 52 SW10 29.75F STAPLES FAIR 41 27 56 SW12G17 29.70F $$ ***** WEATHER ELSEWHERE ACROSS MINNESOTA ***** CITY SKY/WX TMP DP RH WIND PRES REMARKS DULUTH FAIR 31 21 66 SW21G32 29.68F WCI 18 INTRNTL FALLS PTSUNNY 32 22 66 SW10 29.54F WCI 24 ELY FAIR 30 21 69 SW14 29.61S WCI 20 CLOQUET FAIR 32 21 64 SW15G25 29.68F WCI 22 WHEATON NOT AVBL BRAINERD FAIR 37 25 61 SW18G26 29.72S HIBBING FAIR 32 22 66 SW10G21 29.65S WCI 24 ALEXANDRIA FAIR 37 27 67 SW17 29.74S SAINT CLOUD FAIR 37 25 61 SW18G29 29.79F MINNEAPOLIS FAIR 38 25 59 SW18G35 29.87F $$ ***** WEATHER ACROSS SOUTH DAKOTA ***** CITY SKY/WX TMP DP RH WIND PRES REMARKS SIOUX FALLS FAIR 47 29 49 SW21G32 29.83F BROOKINGS FAIR 40 26 57 SW14 29.82R WATERTOWN FAIR 40 28 62 SW13 29.77F HURON FAIR 44 29 55 SW7 29.80S SISSETON N/A 53 26 35 W15G30 29.73R ABERDEEN FAIR 48 26 42 W7 29.76F MITCHELL FAIR 45 27 49 SW13 29.83F PIERRE FAIR 45 28 51 NW13 29.81R MOBRIDGE FAIR 52 28 39 NW10 29.77R RAPID CITY FAIR 55 23 28 NW25G37 29.90R $$ ***** SOME WEATHER IN NEARBY STATES ***** CITY SKY/WX TMP DP RH WIND PRES REMARKS GLASGOW MT FAIR 48 26 42 NW16G29 29.82S GREAT FALLS MT FAIR 47 22 37 SW25G37 29.86F CHEYENNE WY FAIR 50 8 18 W31G39 30.04R SCOTTSBLUFF NE FAIR 55 15 20 W25G35 29.98S OMAHA NE FAIR 47 27 45 SW18G28 30.07F DES MOINES IA FAIR 44 29 55 S18G25 30.12F DAVENPORT IA FAIR 34 25 69 S15 30.22F WCI 24 CHICAGO IL FAIR 35 17 47 SW16G24 30.23F EAU CLAIRE WI FAIR 36 21 54 SW20G31 29.92F LA CROSSE WI FAIR 36 23 59 S21G35 30.05F $$ ***** SOME NATIONAL WEATHER ***** CITY SKY/WX TMP DP RH WIND PRES REMARKS LA GUARDIA NY FAIR 29 3 33 NW22G29 30.18S WCI 15 RALEIGH NC PTSUNNY 48 24 39 E5 30.29R ATLANTA GA CLOUDY 48 30 49 E12 30.23R NEW ORLEANS LA HVY RAIN 51 48 89 N13 30.13S FOG OKLAHOMA CITY FAIR 55 18 23 W13 30.27F ALBUQUERQUE NM FAIR 38 14 37 SW5 30.28S SALT LAKE CITY FAIR 41 22 46 VRB3 30.17F LOS ANGELES CA PTSUNNY 62 17 17 NE7 29.96S BOISE ID FAIR 40 24 53 E6 30.12F SEATTLE WA CLOUDY 42 40 92 N8 30.08R $$ *** WEATHER ACROSS MANITOBA...SASKATCHEWAN AND ONTARIO *** ***ONTARIO*** CITY SKY/WX TMP DP RH WIND PRES REMARKS GERALDTON LGT SNOW 23 18 80 S13G18 29.55F VSB 1 WCI 11 THUNDER BAY CLOUDY 30 19 64 SW9 29.60F WCI 22 SIOUX LOOKOUT MOSUNNY 27 18 69 SW13 29.47F WCI 16 TORONTO MOSUNNY 23 9 54 SW7 30.23F WCI 15 BIG TROUT LK FLURRIES 9 3 78 VRB2 29.56S PICKLE LAKE LGT SNOW 16 10 79 SW5 29.48S VSB 1 WCI 9 DRYDEN PTSUNNY 28 19 69 SW15G21 29.48F WCI 17 KENORA MOSUNNY 34 23 64 W14 29.49 WCI 24 $$ *** MANITOBA*** CITY SKY/WX TMP DP RH WIND PRES REMARKS BRANDON SUNNY 36 28 75 NW18G25 29.62R DAUPHIN CLOUDY 27 21 80 N14G21 29.65R WCI 15 ISLAND LAKE LGT SNOW 10 3 72 N8 29.60 WCI -1 PILOT MOUND N/A 37 30 75 NW21G28 N/A THE PAS FLURRIES 9 3 78 NW9 29.77R WCI -5 THOMPSON PTSUNNY 5 -2 72 NE9G17 29.74R WCI -9 WINNIPEG MOSUNNY 39 30 70 NW16 29.56 LYNN LAKE SUNNY 0 -6 78 VRB3 29.76R CHURCHILL FLURRIES 0 -6 78 NE6 29.89 WCI -12 GILLAM FLURRIES 3 -6 66 NE10 29.75 WCI -12 $$ ***SASKATCHEWAN*** CITY SKY/WX TMP DP RH WIND PRES REMARKS ESTEVAN SUNNY 36 28 75 NW17G26 29.72R KINDERSLEY NOT AVBL LLOYDMINSTER PTSUNNY 23 21 93 S8 29.71R FOG WCI 14 PRINCE ALBERT CLOUDY 19 12 73 E3 29.80 REGINA PTSUNNY 30 25 80 NW16G24 29.77R WCI 19 YORKTON CLOUDY 28 23 80 NW16G24 29.66R WCI 17 N. BATTLEFORD CLOUDY 19 16 86 NW3 29.78R LA RONGE FLURRIES 10 3 72 NW6 29.78S WCI 1 SASKATOON PTSUNNY 21 16 79 CALM 29.76 SWIFT CURRENT SUNNY 34 27 75 W5 29.74S $$ NOTE: THESE ARE AUTOMATED STATIONS WITH LIMITED QUALITY CONTROL "FAIR" INDICATES FEW OR NO CLOUDS BELOW 12,000 FEET WITH NO SIGNIFICANT WEATHER AND/OR OBSTRUCTIONS TO VISIBILITY. SKY/WX - SKY CONDITION AND SIGNIFICANT WEATHER. TMP - AIR TEMPERATURE. DP - DEWPOINT TEMPERATURE. RH - RELATIVE HUMIDITY. PRES - PRESSURE. HX - HEAT INDEX. WCI - WIND CHILL INDEX. $

USA.gov is the U.S. government's official web portal to all federal, state and local government web resources and services.